Kirksville, MO

11:19 PM CDT on March 24, 2017 (GMT -0500)
Kirksville Regional

Weather History for KIRK - April, 2013

Change the Weather History Date:

Saturday, April 6, 2013

  Actual Average Record
Temperature  
Mean Temperature 60 °F 49 °F  
Max Temperature 72 °F 60 °F 84 °F (1954)
Min Temperature 47 °F 38 °F 15 °F (1982)
Degree Days  
Heating Degree Days 5 16  
Month to date heating degree days 132 103  
Since 1 July heating degree days 5494 5390  
Cooling Degree Days 0 0  
Month to date cooling degree days 0 0  
Year to date cooling degree days 0 0  
Growing Degree Days 9 (Base 50)    
Moisture  
Dew Point 40 °F    
Average Humidity 53    
Maximum Humidity 66    
Minimum Humidity 40    
Precipitation  
Precipitation 0.00 in 0.08 in 1.87 in (1947)
Month to date precipitation T 0.42  
Year to date precipitation 8.79 5.77  
Sea Level Pressure  
Sea Level Pressure 29.77 in    
Wind  
Wind Speed 14 mph (SSW)    
Max Wind Speed 31 mph    
Max Gust Speed 41 mph    
Visibility 10 miles    
Events      
T = Trace of Precipitation, MM = Missing Value Source: NWS Daily Summary

Daily Weather History Graph

Daily Weather History Graph

Search for Another Location

Airport or City:

Trip Planner

Search our weather history database for the weather conditions in past years. The results will help you decide how hot, cold, wet, or windy it might be!

Date:

Astronomy

Apr. 06, 2013 Rise Set
Actual Time 6:45 AM CDT 7:39 PM CDT
Civil Twilight 6:18 AM CDT 8:07 PM CDT
Nautical Twilight 5:45 AM CDT 8:40 PM CDT
Astronomical Twilight 5:11 AM CDT 9:14 PM CDT
Moon 4:29 AM CDT (4/6) 4:09 PM CDT (4/6)
Length of Visible Light 13h 49m
Length of Day
12h 54m
Waning Crescent, 15% of the Moon is Illuminated
Apr 6
Waning Crescent
Apr 10
New
Apr 18
First Quarter
Apr 25
Full
May 2
Last Quarter

Hourly Weather History & Observations

Time (CDT) Temp. Dew Point Humidity Pressure Visibility Wind Dir Wind Speed Gust Speed Precip Events Conditions
12:55 AM 53.1 °F 35.1 °F 50% 29.94 in 10.0 mi SSE 15.0 mph - N/A   Clear
1:55 AM 52.0 °F 35.1 °F 53% 29.91 in 10.0 mi SE 15.0 mph - N/A   Clear
2:55 AM 50.0 °F 36.0 °F 59% 29.90 in 10.0 mi SSE 10.4 mph - N/A   Clear
3:55 AM 48.9 °F 37.0 °F 64% 29.88 in 10.0 mi SE 10.4 mph - N/A   Clear
4:55 AM 48.0 °F 37.9 °F 68% 29.87 in 10.0 mi SSE 8.1 mph - N/A   Clear
5:55 AM 50.0 °F 37.9 °F 63% 29.85 in 10.0 mi South 9.2 mph - N/A   Partly Cloudy
6:55 AM 48.9 °F 37.0 °F 64% 29.85 in 10.0 mi SSE 11.5 mph - N/A   Clear
7:55 AM 52.0 °F 37.9 °F 59% 29.83 in 10.0 mi SSE 16.1 mph - N/A   Scattered Clouds
8:55 AM 57.9 °F 37.0 °F 46% 29.80 in 10.0 mi South 15.0 mph 23.0 mph N/A   Clear
9:55 AM 61.0 °F 37.9 °F 42% 29.77 in 10.0 mi South 23.0 mph 34.5 mph N/A   Clear
10:55 AM 59.0 °F 39.0 °F 48% 29.75 in 10.0 mi SSW 19.6 mph 31.1 mph N/A   Scattered Clouds
11:55 AM 63.0 °F 39.9 °F 43% 29.73 in 10.0 mi SSW 28.8 mph 39.1 mph N/A   Clear
12:55 PM 64.9 °F 41.0 °F 42% 29.71 in 10.0 mi SSW 23.0 mph 33.4 mph N/A   Clear
1:55 PM 64.9 °F 42.1 °F 43% 29.69 in 10.0 mi SSW 27.6 mph 38.0 mph N/A   Clear
2:55 PM 66.9 °F 44.1 °F 44% 29.66 in 10.0 mi SSW 25.3 mph 34.5 mph N/A   Scattered Clouds
3:55 PM 68.0 °F 46.0 °F 45% 29.65 in 10.0 mi SW 18.4 mph 29.9 mph N/A   Overcast
4:55 PM 68.0 °F 46.0 °F 45% 29.66 in 10.0 mi SW 17.3 mph 25.3 mph N/A   Overcast
5:55 PM 69.1 °F 46.9 °F 45% 29.65 in 10.0 mi SW 12.7 mph 21.9 mph N/A   Scattered Clouds
6:55 PM 70.0 °F 46.9 °F 44% 29.67 in 10.0 mi WSW 11.5 mph 19.6 mph N/A   Mostly Cloudy
7:55 PM 64.9 °F 39.9 °F 40% 29.71 in 10.0 mi West 15.0 mph 28.8 mph N/A   Clear
8:55 PM 62.1 °F 39.9 °F 44% 29.74 in 10.0 mi West 10.4 mph - N/A   Clear
9:55 PM 60.1 °F 39.9 °F 47% 29.77 in 10.0 mi WSW 4.6 mph - N/A   Clear
10:55 PM 55.0 °F 39.9 °F 57% 29.79 in 10.0 mi WSW 4.6 mph - N/A   Clear
11:55 PM 51.1 °F 39.9 °F 66% 29.80 in 10.0 mi SW 3.5 mph - N/A   Clear